sat.trackr.live / text

‹ back to catalog

STARLINK-34093

NORAD 64015 · 2025-101X

PAYLOAD ACTIVE UNKNOWN

§ Identity

Operator
Country
US
Launch date
2025-05-14
Launch site
AFETR
Launch vehicle
Mass (kg)
RCS (m²)

Purposes: comms

External: N2YO · Heavens-Above · Gunter

§ Orbital elements

Epoch: 2026-09-20T06:07:10.462080Z

Period
94.27 min
Inclination
43.0006°
Eccentricity
0.0001368
Mean motion
15.27585713 rev/d
Perigee alt
482.1 km
Apogee alt
484.0 km
Semi-major
6,861.2 km
B*
3.6538e-4
RAAN
338.9677°
Arg perigee
278.5069°
Mean anomaly
81.5627°
Rev number
7,681

§ Raw data

STARLINK-340931 64015U 25101X   26263.25498220  .00009807  00000+0  36538-3 0  99972 64015  43.0006 338.9677 0001368 278.5069  81.5627 15.27585713 76814

JSON: /api/v1/satellites/64015 · /tle

For live sub-satellite position, see the globe view (requires WebGL).

§ Visibility from observer

Set your observer location to see the next 7 days of passes ≥ 10°. The values pass through the URL so the page stays shareable.

No JS? Fill the form by hand. The geolocation button needs JavaScript.